Voltar ao catálogo

QIANFAN-215

AtivoComunicaçõesPO
NORAD 69814·PAYLOAD·🇨🇳 China

Lançado Jul 4, 2026 de Taiyuan Satellite Launch Center

Loading…

Próximas Passagens (próximas 24 horas)

TLE

AtualizadoSource: Space-Track

Época: Sep 14, 2026, 13:17 UTC

1 69814U 26153Q   26257.55369579 -.01861599  00000-0 -10705+1 0  9990
2 69814  88.9972 352.0137 0006015  64.3545 295.8262 14.13053302 10279

Acompanhe QIANFAN-215 em tempo real com AllMySat

Download on the App Store